Hourly Data Report for October 08, 2013

All times are specified in Local Standard Time (LST). Add 1 hour to adjust for Daylight Saving Time where and when it is observed.

KUGAARUK CLIMATE
NUNAVUT

68°32'15.060" N
89°47'47.020" W
15.80 m
2303094
71407
NBB

Download Data

Hourly Data (October 2013)
Hourly Data Report for October 8, 2013
Temp Definition
°C
Dew Point Temp Definition
°C
Rel Hum Definition
%
Wind Dir Definition
10's deg

Wind Spd Definition
km/h
Visibility Definition
km
Stn Press Definition
kPa
Hmdx Definition


Wind Chill Definition


Weather Definition


TIME
00:00 -5.5 -7.0 89 4 9   101.64   -10 LegendNANA
01:00 -6.5 -7.6 92 9 4   101.67   -8 LegendNANA
02:00 -4.6 -6.7 85 4 11   101.63   -9 LegendNANA
03:00 -4.5 -8.1 76 5 13   101.66   -10 LegendNANA
04:00 -4.5 -8.0 76 4 19   101.70   -11 LegendNANA
05:00 -5.0 -7.6 82 5 19   101.71   -11 LegendNANA
06:00 -5.2 -7.9 81 3 22   101.72   -12 LegendNANA
07:00 -5.5 -8.2 81 3 24   101.70   -13 LegendNANA
08:00 -5.6 -8.4 81 4 19   101.68   -12 LegendNANA
09:00 -5.6 -8.6 79 3 19   101.67   -12 LegendNANA
10:00 -5.5 -8.7 78 3 20   101.64   -12 LegendNANA
11:00 -5.7 -8.9 78 2 24   101.64   -13 LegendNANA
12:00 -5.4 -8.8 77 2 22   101.64   -12 LegendNANA
13:00 -6.1 -9.4 77 1 28   101.65   -14 LegendNANA
14:00 -6.4 -9.7 77 1 28   101.67   -15 LegendNANA
15:00 -6.4 -10.0 76 36 26   101.67   -14 LegendNANA
16:00 -6.5 -9.9 77 1 22   101.66   -14 LegendNANA
17:00 -6.5 -10.0 76 2 20   101.65   -13 LegendNANA
18:00 -7.1 -10.6 76 2 19   101.63   -14 LegendNANA
19:00 -8.1 -10.8 81 4 4   101.63   -10 LegendNANA
20:00 -7.7 -10.0 84 10 7   101.63   -11 LegendNANA
21:00 -7.2 -9.8 82 1 9   101.64   -12 LegendNANA
22:00 -6.8 -9.4 82 29 6   101.64   -10 LegendNANA
23:00 -6.8 -9.5 81 33 9   101.65   -11 LegendNANA

Notes on Data Quality.

Legend

  • E = Estimated
  • M = Missing
  • NA = Not Available
  • ‡ = Partner data that is not subject to review by the National Climate Archives
Date modified: